| time (UTC) | temp C | wind direction | speed KPH | gust KPH | rain 1hr cm | rain 24hr cm | rain mn cm | humidity % | barometer mb |
| 20260509215205 | 9 | 24 | 0.0 | 1.6 | 0.20 | 0.69 | 0.69 | 95 | 1012.6 |
| 20260509213704 | 9 | 53 | 0.0 | 0.0 | 0.15 | 0.64 | 0.64 | 94 | 1012.6 |
| 20260509212704 | 9 | 53 | 0.0 | 1.6 | 0.15 | 0.61 | 0.61 | 94 | 1012.7 |
| 20260509212205 | 9 | 53 | 0.0 | 1.6 | 0.13 | 0.58 | 0.58 | 94 | 1012.7 |
| 20260509210705 | 9 | 93 | 0.0 | 3.2 | 0.10 | 0.53 | 0.53 | 94 | 1012.8 |
| 20260509210205 | 9 | 93 | 0.0 | 3.2 | 0.10 | 0.51 | 0.51 | 94 | 1012.9 |
| 20260509205704 | 9 | 92 | 0.0 | 4.8 | 0.10 | 0.51 | 0.51 | 94 | 1012.7 |
| 20260509203704 | 9 | 344 | 0.0 | 3.2 | 0.08 | 0.48 | 0.48 | 94 | 1012.7 |
| 20260509202705 | 9 | 92 | 0.0 | 4.8 | 0.05 | 0.46 | 0.46 | 94 | 1012.6 |
| 20260509193705 | 10 | 46 | 0.0 | 3.2 | 0.00 | 0.41 | 0.41 | 93 | 1012.4 |
| 20260509191704 | 10 | 37 | 0.0 | 1.6 | 0.00 | 0.41 | 0.41 | 94 | 1012.7 |
| 20260509190205 | 9 | 36 | 3.2 | 8.0 | 0.03 | 0.41 | 0.41 | 94 | 1012.4 |
| 20260509185705 | 9 | 68 | 1.6 | 3.2 | 0.05 | 0.41 | 0.41 | 95 | 1012.7 |
| 20260509184705 | 9 | 40 | 0.0 | 1.6 | 0.05 | 0.41 | 0.41 | 94 | 1013.0 |
| 20260509184204 | 9 | 40 | 0.0 | 4.8 | 0.05 | 0.41 | 0.41 | 95 | 1013.0 |
| 20260509183705 | 9 | 4 | 1.6 | 4.8 | 0.05 | 0.41 | 0.41 | 94 | 1013.0 |
| 20260509183205 | 8 | 63 | 0.0 | 3.2 | 0.08 | 0.41 | 0.41 | 94 | 1013.2 |
| 20260509182204 | 8 | 36 | 0.0 | 0.0 | 0.10 | 0.41 | 0.41 | 94 | 1013.4 |
| 20260509181705 | 8 | 36 | 0.0 | 0.0 | 0.10 | 0.41 | 0.41 | 94 | 1013.3 |
| 20260509180704 | 8 | 36 | 0.0 | 0.0 | 0.08 | 0.38 | 0.38 | 94 | 1013.5 |
| 20260509180204 | 8 | 36 | 0.0 | 0.0 | 0.10 | 0.38 | 0.38 | 94 | 1013.5 |
| 20260509174204 | 8 | 333 | 0.0 | 0.0 | 0.13 | 0.36 | 0.36 | 94 | 1013.7 |
| 20260509172704 | 8 | 304 | 0.0 | 0.0 | 0.13 | 0.33 | 0.33 | 93 | 1013.8 |
| 20260509172204 | 8 | 291 | 0.0 | 0.0 | 0.13 | 0.30 | 0.30 | 93 | 1014.1 |
| 20260509165205 | 8 | 292 | 0.0 | 0.0 | 0.10 | 0.25 | 0.25 | 93 | 1014.1 |
| 20260509164704 | 8 | 291 | 0.0 | 1.6 | 0.10 | 0.23 | 0.23 | 93 | 1014.3 |
| 20260509163205 | 8 | 295 | 0.0 | 0.0 | 0.10 | 0.20 | 0.20 | 92 | 1013.9 |
| 20260509161704 | 8 | 242 | 1.6 | 1.6 | 0.10 | 0.18 | 0.18 | 93 | 1013.8 |
| 20260509160204 | 8 | 241 | 0.0 | 3.2 | 0.08 | 0.15 | 0.15 | 92 | 1014.1 |
| 20260509153704 | 8 | 238 | 0.0 | 0.0 | 0.05 | 0.13 | 0.13 | 91 | 1014.6 |
| 20260509153204 | 8 | 238 | 0.0 | 0.0 | 0.05 | 0.10 | 0.10 | 91 | 1014.7 |
| 20260509152704 | 8 | 238 | 0.0 | 0.0 | 0.05 | 0.10 | 0.10 | 91 | 1014.7 |
| 20260509150204 | 8 | 237 | 0.0 | 0.0 | 0.03 | 0.08 | 0.08 | 91 | 1014.9 |
| 20260509145704 | 8 | 237 | 0.0 | 0.0 | 0.05 | 0.08 | 0.08 | 90 | 1014.7 |
| 20260509145205 | 8 | 237 | 0.0 | 0.0 | 0.05 | 0.08 | 0.08 | 90 | 1014.8 |
| 20260509143204 | 8 | 238 | 0.0 | 1.6 | 0.03 | 0.05 | 0.05 | 90 | 1015.0 |
| 20260509142704 | 8 | 240 | 0.0 | 0.0 | 0.05 | 0.05 | 0.05 | 90 | 1015.0 |
| 20260509141704 | 8 | 240 | 0.0 | 0.0 | 0.05 | 0.05 | 0.05 | 90 | 1015.0 |
| 20260509135705 | 8 | 239 | 0.0 | 0.0 | 0.03 | 0.03 | 0.03 | 87 | 1014.8 |
| 20260509134705 | 8 | 240 | 0.0 | 1.6 | 0.03 | 0.03 | 0.03 | 89 | 1014.7 |
| 20260509134204 | 8 | 251 | 0.0 | 0.0 | 0.03 | 0.03 | 0.03 | 89 | 1014.6 |
| 20260509133704 | 8 | 251 | 0.0 | 0.0 | 0.03 | 0.03 | 0.03 | 89 | 1014.6 |
| 20260509132204 | 8 | 251 | 0.0 | 0.0 | 0.00 | 0.00 | 0.00 | 87 | 1014.5 |
| 20260509131704 | 8 | 251 | 0.0 | 0.0 | 0.00 | 0.00 | 0.00 | 85 | 1014.5 |
| 20260509131205 | 8 | 251 | 0.0 | 0.0 | 0.00 | 0.00 | 0.00 | 83 | 1014.5 |
| 20260509125705 | 7 | 251 | 0.0 | 0.0 | 0.00 | 0.00 | 0.00 | 80 | 1014.5 |
| 20260509124704 | 7 | 251 | 0.0 | 0.0 | 0.00 | 0.00 | 0.00 | 81 | 1014.7 |
| 20260509124204 | 7 | 251 | 0.0 | 0.0 | 0.00 | 0.00 | 0.00 | 82 | 1014.7 |
| 20260509123204 | 7 | 250 | 0.0 | 1.6 | 0.00 | 0.00 | 0.00 | 85 | 1014.8 |
| 20260509122705 | 7 | 250 | 0.0 | 0.0 | 0.00 | 0.00 | 0.00 | 86 | 1015.0 |
| 20260509120704 | 6 | 250 | 1.6 | 3.2 | 0.00 | 0.00 | 0.00 | 88 | 1015.0 |
| 20260509120204 | 5 | 252 | 4.8 | 4.8 | 0.00 | 0.00 | 0.00 | 90 | 1014.8 |
| 20260509114205 | 5 | 185 | 0.0 | 0.0 | 0.00 | 0.00 | 0.00 | 92 | 1014.8 |
| 20260509113704 | 4 | 185 | 0.0 | 0.0 | 0.00 | 0.00 | 0.00 | 92 | 1014.8 |
| 20260509110704 | 3 | 185 | 0.0 | 0.0 | 0.00 | 0.00 | 0.00 | 93 | 1015.1 |
| 20260509110204 | 3 | 185 | 0.0 | 0.0 | 0.00 | 0.00 | 0.00 | 93 | 1015.0 |
| 20260509105704 | 2 | 185 | 0.0 | 0.0 | 0.00 | 0.00 | 0.00 | 93 | 1014.9 |
| 20260509105204 | 2 | 185 | 0.0 | 0.0 | 0.00 | 0.00 | 0.00 | 93 | 1015.1 |
| 20260509104705 | 2 | 185 | 0.0 | 0.0 | 0.00 | 0.00 | 0.00 | 93 | 1015.1 |
| 20260509103704 | 2 | 185 | 0.0 | 0.0 | 0.00 | 0.00 | 0.00 | 93 | 1014.9 |
| 20260509103204 | 2 | 185 | 0.0 | 0.0 | 0.00 | 0.00 | 0.00 | 93 | 1015.0 |
| 20260509102704 | 2 | 185 | 0.0 | 0.0 | 0.00 | 0.00 | 0.00 | 93 | 1015.1 |
| 20260509102205 | 2 | 185 | 0.0 | 0.0 | 0.00 | 0.00 | 0.00 | 93 | 1015.1 |
| 20260509101204 | 1 | 185 | 0.0 | 0.0 | 0.00 | 0.00 | 0.00 | 93 | 1014.8 |
| 20260509100704 | 1 | 185 | 0.0 | 0.0 | 0.00 | 0.00 | 0.00 | 93 | 1014.7 |
| 20260509095204 | 1 | 185 | 0.0 | 0.0 | 0.00 | 0.00 | 0.00 | 93 | 1014.5 |
| 20260509094704 | 1 | 185 | 0.0 | 0.0 | 0.00 | 0.00 | 0.00 | 93 | 1014.5 |
| 20260509092704 | 1 | 185 | 0.0 | 0.0 | 0.00 | 0.00 | 0.00 | 92 | 1014.2 |
| 20260509091205 | 1 | 185 | 0.0 | 0.0 | 0.00 | 0.00 | 0.00 | 92 | 1014.3 |
| 20260509090204 | 1 | 185 | 0.0 | 0.0 | 0.00 | 0.00 | 0.00 | 92 | 1014.3 |
| 20260509085704 | 1 | 185 | 0.0 | 0.0 | 0.00 | 0.00 | 0.00 | 92 | 1014.3 |
| 20260509085204 | 1 | 185 | 0.0 | 0.0 | 0.00 | 0.00 | 0.00 | 92 | 1014.1 |
| 20260509084705 | 1 | 185 | 0.0 | 0.0 | 0.00 | 0.00 | 0.00 | 92 | 1014.0 |
| 20260509083704 | 1 | 185 | 0.0 | 0.0 | 0.00 | 0.00 | 0.00 | 92 | 1013.9 |
| 20260509082704 | 1 | 185 | 0.0 | 0.0 | 0.00 | 0.00 | 0.00 | 92 | 1014.0 |
| 20260509082204 | 1 | 185 | 0.0 | 0.0 | 0.00 | 0.00 | 0.00 | 91 | 1013.9 |
| 20260509081204 | 1 | 185 | 0.0 | 0.0 | 0.00 | 0.00 | 0.00 | 91 | 1013.9 |
| 20260509080704 | 1 | 185 | 0.0 | 0.0 | 0.00 | 0.00 | 0.00 | 91 | 1013.9 |
| 20260509074704 | 1 | 185 | 0.0 | 0.0 | 0.00 | 0.00 | 0.00 | 90 | 1013.9 |
| 20260509074204 | 1 | 185 | 0.0 | 0.0 | 0.00 | 0.00 | 0.00 | 90 | 1013.9 |
| 20260509071204 | 1 | 185 | 0.0 | 0.0 | 0.00 | 0.00 | 0.00 | 90 | 1013.9 |
| 20260509070705 | 2 | 185 | 0.0 | 0.0 | 0.00 | 0.00 | 0.00 | 89 | 1013.8 |
| 20260509070204 | 2 | 185 | 0.0 | 0.0 | 0.00 | 0.00 | 0.00 | 90 | 1013.7 |
| 20260509064704 | 2 | 185 | 0.0 | 0.0 | 0.00 | 0.00 | 0.00 | 89 | 1013.7 |
| 20260509063204 | 2 | 185 | 0.0 | 0.0 | 0.00 | 0.00 | 0.00 | 88 | 1013.8 |
| 20260509062704 | 2 | 185 | 0.0 | 0.0 | 0.00 | 0.00 | 0.00 | 88 | 1013.8 |
| 20260509062204 | 2 | 185 | 0.0 | 0.0 | 0.00 | 0.00 | 0.00 | 88 | 1013.8 |
| 20260509061704 | 2 | 185 | 0.0 | 0.0 | 0.00 | 0.00 | 0.00 | 87 | 1013.8 |
| 20260509061204 | 2 | 185 | 0.0 | 0.0 | 0.00 | 0.00 | 0.00 | 88 | 1013.9 |
| 20260509060704 | 2 | 185 | 0.0 | 0.0 | 0.00 | 0.00 | 0.00 | 87 | 1013.9 |
| 20260509060204 | 2 | 185 | 0.0 | 0.0 | 0.00 | 0.00 | 0.00 | 87 | 1013.9 |
| 20260509055204 | 3 | 185 | 0.0 | 0.0 | 0.00 | 0.00 | 0.00 | 87 | 1013.9 |
| 20260509054704 | 3 | 185 | 0.0 | 0.0 | 0.00 | 0.00 | 0.00 | 86 | 1013.8 |
| 20260509054203 | 3 | 185 | 0.0 | 0.0 | 0.00 | 0.00 | 0.00 | 87 | 1013.9 |
| 20260509053704 | 3 | 185 | 0.0 | 0.0 | 0.00 | 0.00 | 0.00 | 87 | 1013.8 |
| 20260509053203 | 3 | 185 | 0.0 | 0.0 | 0.00 | 0.00 | 0.00 | 86 | 1013.7 |
| 20260509051704 | 3 | 185 | 0.0 | 0.0 | 0.00 | 0.00 | 0.00 | 85 | 1013.6 |
| 20260509050204 | 3 | 185 | 0.0 | 0.0 | 0.00 | 0.00 | 0.00 | 84 | 1013.7 |
| 20260509045704 | 4 | 185 | 0.0 | 0.0 | 0.00 | 0.00 | 0.00 | 84 | 1013.6 |
| 20260509043703 | 4 | 185 | 0.0 | 0.0 | 0.00 | 0.00 | 0.00 | 82 | 1013.6 |
| 20260509043204 | 5 | 185 | 0.0 | 0.0 | 0.00 | 0.00 | 0.00 | 82 | 1013.5 |
| 20260509042704 | 5 | 185 | 0.0 | 0.0 | 0.00 | 0.00 | 0.00 | 82 | 1013.5 |
| 20260509041704 | 5 | 185 | 0.0 | 0.0 | 0.00 | 0.00 | 0.00 | 81 | 1013.4 |
| 20260509040204 | 5 | 185 | 0.0 | 0.0 | 0.00 | 0.00 | 0.00 | 79 | 1013.3 |
| 20260509035705 | 5 | 185 | 0.0 | 0.0 | 0.00 | 0.00 | 0.00 | 78 | 1013.3 |
| 20260509033204 | 6 | 185 | 0.0 | 0.0 | 0.00 | 0.00 | 0.00 | 76 | 1013.1 |
| 20260509032703 | 6 | 185 | 0.0 | 0.0 | 0.00 | 0.00 | 0.00 | 76 | 1013.0 |
| 20260509032205 | 6 | 185 | 0.0 | 0.0 | 0.00 | 0.00 | 0.00 | 76 | 1013.0 |
| 20260509030704 | 6 | 185 | 0.0 | 0.0 | 0.00 | 0.00 | 0.00 | 74 | 1012.8 |
| 20260509030204 | 6 | 185 | 0.0 | 0.0 | 0.00 | 0.00 | 0.00 | 74 | 1012.8 |
| 20260509024704 | 7 | 185 | 0.0 | 0.0 | 0.00 | 0.00 | 0.00 | 71 | 1012.7 |
| 20260509024203 | 7 | 185 | 0.0 | 0.0 | 0.00 | 0.00 | 0.00 | 71 | 1012.7 |
| 20260509023204 | 7 | 185 | 0.0 | 0.0 | 0.00 | 0.00 | 0.00 | 70 | 1012.7 |
| 20260509022703 | 7 | 185 | 0.0 | 0.0 | 0.00 | 0.00 | 0.00 | 69 | 1012.6 |
| 20260509021703 | 8 | 185 | 0.0 | 0.0 | 0.00 | 0.00 | 0.00 | 69 | 1012.5 |
| 20260509020704 | 8 | 185 | 0.0 | 0.0 | 0.00 | 0.00 | 0.00 | 64 | 1012.3 |
| 20260509015704 | 8 | 185 | 0.0 | 0.0 | 0.00 | 0.00 | 0.00 | 65 | 1012.2 |
| 20260509015203 | 8 | 185 | 0.0 | 0.0 | 0.00 | 0.00 | 0.00 | 65 | 1012.1 |
| 20260509014703 | 9 | 185 | 0.0 | 0.0 | 0.00 | 0.00 | 0.00 | 65 | 1012.0 |
| 20260509013203 | 9 | 185 | 0.0 | 0.0 | 0.00 | 0.00 | 0.00 | 62 | 1011.8 |
| 20260509012204 | 10 | 185 | 0.0 | 0.0 | 0.00 | 0.00 | 0.00 | 61 | 1011.7 |
| 20260509011704 | 10 | 185 | 0.0 | 0.0 | 0.00 | 0.00 | 0.00 | 60 | 1011.6 |
| 20260509011203 | 10 | 185 | 0.0 | 0.0 | 0.00 | 0.00 | 0.00 | 58 | 1011.4 |
| 20260509010704 | 10 | 185 | 0.0 | 0.0 | 0.00 | 0.00 | 0.00 | 56 | 1011.4 |
| 20260509000205 | 12 | 265 | 0.0 | 0.0 | 0.00 | 0.00 | 0.00 | 49 | 1010.2 |
| 20260508234704 | 12 | 264 | 0.0 | 4.8 | 0.00 | 0.00 | 0.00 | 49 | 1010.0 |
| 20260508234205 | 12 | 269 | 0.0 | 3.2 | 0.00 | 0.00 | 0.00 | 49 | 1009.9 |
| 20260508233705 | 12 | 269 | 1.6 | 4.8 | 0.00 | 0.00 | 0.00 | 48 | 1009.8 |
| 20260508231204 | 13 | 253 | 1.6 | 4.8 | 0.00 | 0.00 | 0.00 | 42 | 1009.3 |
| 20260508230705 | 13 | 333 | 3.2 | 9.7 | 0.00 | 0.00 | 0.00 | 44 | 1009.2 |
| 20260508230205 | 13 | 290 | 1.6 | 4.8 | 0.00 | 0.00 | 0.00 | 46 | 1009.2 |
| 20260508225204 | 13 | 234 | 1.6 | 4.8 | 0.00 | 0.00 | 0.00 | 43 | 1009.0 |
| 20260508220705 | 15 | 351 | 1.6 | 8.0 | 0.00 | 0.00 | 0.00 | 40 | 1008.7 |
| 20260508220204 | 15 | 271 | 1.6 | 9.7 | 0.00 | 0.00 | 0.00 | 39 | 1008.7 |
| 20260508215704 | 15 | 287 | 1.6 | 3.2 | 0.00 | 0.00 | 0.00 | 41 | 1008.7 |